Burley, ID

3:58 AM MDT on April 25, 2018 (GMT -0600)
Burley Municipal

Weather History for KBYI - February, 2013

Change the Weather History Date:

Tuesday, February 19, 2013

  Actual Average Record
Temperature  
Mean Temperature 37 °F 32 °F  
Max Temperature 48 °F 41 °F 64 °F (1981)
Min Temperature 25 °F 22 °F -3 °F (1984)
Degree Days  
Heating Degree Days 28 33  
Month to date heating degree days 603 671  
Since 1 July heating degree days 4448 4737  
Cooling Degree Days 0 0  
Month to date cooling degree days 0 0  
Year to date cooling degree days 0 0  
Moisture  
Dew Point 22 °F    
Average Humidity 61    
Maximum Humidity 88    
Minimum Humidity 34    
Precipitation  
Precipitation 0.00 in 0.03 in 0.70 in (1986)
Month to date precipitation 0.10 0.50  
Year to date precipitation 0.27 1.41  
Sea Level Pressure  
Sea Level Pressure 29.70 in    
Wind  
Wind Speed 6 mph (NNE)    
Max Wind Speed 15 mph    
Max Gust Speed 20 mph    
Visibility 10 miles    
Events      
T = Trace of Precipitation, MM = Missing Value Source: NWS Daily Summary

Daily Weather History Graph

Daily Weather History Graph

Search for Another Location

Airport or City:

Astronomy

Feb. 19, 2013 Rise Set
Actual Time 7:25 AM MST 6:12 PM MST
Civil Twilight 6:56 AM MST 6:41 PM MST
Nautical Twilight 6:24 AM MST 7:14 PM MST
Astronomical Twilight 5:51 AM MST 7:46 PM MST
Moon 12:43 PM MST (2/19) 3:04 AM MST (2/19)
Length of Visible Light 11h 44m
Length of Day
10h 47m
Waxing Gibbous, 68% of the Moon is Illuminated
Feb 19
Waxing Gibbous
Feb 25
Full
Mar 4
Last Quarter
Mar 11
New
Mar 19
First Quarter

Hourly Weather History & Observations

Time (MST) Temp. Windchill Dew Point Humidity Pressure Visibility Wind Dir Wind Speed Gust Speed Precip Events Conditions
12:53 AM 26.1 °F 21.9 °F 19.0 °F 75% 29.84 in 10.0 mi North 3.5 mph - N/A   Clear
1:53 AM 28.0 °F 20.0 °F 18.0 °F 66% 29.81 in 10.0 mi NNE 8.1 mph - N/A   Clear
2:53 AM 26.1 °F 20.5 °F 19.0 °F 75% 29.78 in 10.0 mi NNE 4.6 mph - N/A   Clear
3:53 AM 28.0 °F 19.3 °F 19.0 °F 69% 29.75 in 10.0 mi North 9.2 mph - N/A   Mostly Cloudy
4:53 AM 28.9 °F 20.4 °F 19.0 °F 67% 29.73 in 10.0 mi NNE 9.2 mph - N/A   Overcast
5:53 AM 28.9 °F 22.8 °F 19.0 °F 67% 29.75 in 10.0 mi NE 5.8 mph - N/A   Overcast
6:53 AM 30.0 °F 21.7 °F 19.0 °F 64% 29.75 in 10.0 mi NE 9.2 mph - N/A   Overcast
7:53 AM 28.9 °F 21.9 °F 19.9 °F 69% 29.75 in 10.0 mi ESE 6.9 mph - N/A   Overcast
8:53 AM 30.9 °F 24.3 °F 19.0 °F 61% 29.75 in 10.0 mi ENE 6.9 mph - N/A   Overcast
9:53 AM 33.1 °F - 19.9 °F 59% 29.74 in 10.0 mi Calm Calm - N/A   Overcast
11:53 AM 39.9 °F - 25.0 °F 55% 29.70 in 10.0 mi Calm Calm - N/A   Partly Cloudy
12:53 PM 44.1 °F 42.5 °F 23.0 °F 43% 29.66 in 10.0 mi Variable 3.5 mph - N/A   Mostly Cloudy
1:53 PM 46.9 °F - 21.0 °F 36% 29.61 in 10.0 mi Variable 4.6 mph - N/A   Clear
2:53 PM 46.9 °F - 19.0 °F 33% 29.60 in 10.0 mi East 3.5 mph - N/A   Scattered Clouds
3:53 PM 46.9 °F - 21.0 °F 36% 29.59 in 10.0 mi NNE 6.9 mph - N/A   Overcast
5:53 PM 39.0 °F 32.8 °F 27.0 °F 62% 29.60 in 10.0 mi NNE 9.2 mph - N/A   Mostly Cloudy
6:53 PM 36.0 °F 28.0 °F 26.1 °F 67% 29.62 in 10.0 mi NNE 11.5 mph 19.6 mph N/A   Partly Cloudy
7:53 PM 34.0 °F 28.0 °F 27.0 °F 75% 29.64 in 10.0 mi NNE 6.9 mph - N/A   Partly Cloudy
8:53 PM 33.1 °F 26.9 °F 27.0 °F 78% 29.64 in 10.0 mi NNE 6.9 mph - N/A   Overcast
9:53 PM 33.1 °F 28.7 °F 27.0 °F 78% 29.65 in 10.0 mi North 4.6 mph - N/A   Overcast
11:53 PM 32.0 °F 28.7 °F 28.0 °F 85% 29.65 in 10.0 mi NNW 3.5 mph - N/A   Overcast